Погода в Ялуторовске

Россия / Тюменская область     56°39′16″N   66°18′43″E
темп.,
°C
ветер,
м/с
пор.,
м/с
влажн.,
%
обл.,
%
осадки,
мм/ч
давл.,
гПа
погр.,
м
21 января, чт
чт2123:00−17вюв2297100 1.4 100957
02:00−18зюз4797100 0.2 1009209
05:00−19зюз4895100 0.3 1010192
08:00−20зюз3798100 0.0 1010157
11:00−19зюз5894100 0.1 1011278
14:00−19зюз4794100 0.1 1011376
17:00−23юз4797100 0.1 1011131
20:00−25зюз349775 0.0 101164
22 января, пт
пт2223:00−23зюз359783 0.1 1011123
02:00−25з349884 0.0 101240
05:00−26з349877 0.0 101342
08:00−27зсз339872 0.0 101433
11:00−27сз359666 0.0 1015131
14:00−25сз249553 0.0 1017253
17:00−28сз349633 0.0 101932
20:00−28ссз349886 0.0 102260
23 января, сб
сб2323:00−29с349890 0.1 102572
02:00−33с349513 0.0 102841
05:00−35ссз33956 0.0 103036
08:00−37ссз339522 0.0 103440
11:00−36ссз249544 0.0 1036140
14:00−34сз239228 0.0 1037238
17:00−37сз119547 0.0 103819
20:00−34ююз1193100 0.0 103920
24 января, вс
вс2423:00−34ю2294100 0.0 103950
02:00−32ююв2294100 0.0 103874
05:00−31юв3493100 0.0 1037139
08:00−29юв3597100 0.1 1037200
11:00−28юв369696 0.1 1037233
14:00−25юв4694100 0.0 1036309
17:00−24юв4895100 0.1 1034347
20:00−24юв5898100 0.4 1033350
25 января, пн
пн2523:00−22юв5897100 0.9 1031396
02:00−21юв4798100 0.5 1029325
05:00−20вюв3599100 1.8 1028248
08:00−21в3598100 0.6 1028168
11:00−22всв3496100 0.6 1030128
14:00−21св239578 0.0 1031171
17:00−23св229657 0.0 103320
20:00−24в229697 0.0 103420